Location: Blachownia
(50.7807°N, 18.9578°E)
Time: 12:27:19
(UTC+01:00)

ISS - Pass Details

Date: 31 January 2019
Orbit: 403 x 411 km, 51.6° (Epoch: 21 February)

Event Time Altitude Azimuth Distance (km) Brightness Sun altitude
Rises 19:47:32 0° 284° (WNW) 2,342 1.2 -30.6°
Reaches altitude 10° 19:49:38 10° 282° (WNW) 1,481 -0.1 -30.9°
Enters shadow 19:49:58 12° 282° (WNW) 1,342 -0.4 -31.0°
